CAPE
nan nan 0 4 4 2 4 9 3 3 1 2 0 0 0 4 5 5 16 12 12 11 16 20 20 15 27 68 91 91 106 119 127 127 140 144 151 151 156 161 161 164 180 198 198 209 216 222 222 232 224 237 241 241 240 249 249 263 267 273 273 283 301 311 311 322 321 312 300 300 293 290 301 301 308 295 280 280 271 266 266 266 259 252 252 259
0 1 3 6 6 2 2 8 5 5 1 0 0 0 0 0 3 3 11 19 19 16 14 14 14 12 9 38 83 83 101 110 119 119 126 126 133 133 143 158 158 165 177 188 188 190 191 190 190 189 193 191 201 201 205 209 209 223 229 239 239 258 276 292 292 299 299 289 278 278 276 284 291 291 294 291 287 287 287 287 287 286 283 273 273 267
1 2 2 5 5 2 1 3 3 3 2 0 0 0 0 4 7 7 14 18 18 17 13 7 7 7 8 28 83 83 91 103 108 108 116 120 126 126 140 151 151 159 160 164 164 159 159 161 161 160 165 173 181 181 184 192 192 202 219 224 224 248 264 278 278 285 274 265 261 261 271 273 274 274 275 277 284 284 297 303 303 311 317 294 294 291
5 1 1 5 5 5 2 0 1 1 1 1 2 2 3 9 16 16 15 14 14 14 10 6 6 5 6 17 55 55 85 100 110 110 112 115 119 119 127 128 128 128 129 134 134 135 135 137 137 148 153 167 170 170 184 191 191 204 216 227 227 242 252 269 269 266 255 252 256 256 261 267 259 259 261 261 279 279 299 317 317 328 318 305 305 307
7 3 2 3 3 4 5 1 0 0 1 1 2 2 7 16 25 25 18 14 14 8 3 4 4 4 6 11 37 37 77 92 102 102 104 105 103 103 101 99 99 101 102 110 110 114 121 125 125 136 147 164 179 179 194 198 198 205 218 229 229 231 235 250 250 249 246 250 259 259 264 258 263 263 268 283 301 301 331 338 338 346 322 315 315 326
6 4 4 3 3 2 2 2 1 1 2 2 5 5 11 18 22 22 14 8 8 6 4 5 5 6 5 5 33 33 65 79 81 81 85 84 86 86 84 88 88 88 93 97 97 104 110 120 120 127 144 168 187 187 197 204 204 204 210 217 217 221 229 243 243 250 250 247 252 252 255 269 266 266 273 280 306 306 333 342 342 353 312 316 316 323
7 5 7 3 3 1 0 1 1 1 0 2 11 11 20 22 15 15 7 7 7 8 9 7 7 5 5 8 30 30 53 58 63 63 66 72 75 75 81 83 83 88 91 95 95 98 104 111 111 122 140 164 178 178 184 191 191 194 201 203 203 214 218 217 217 223 223 222 217 217 219 227 246 246 250 255 273 273 293 307 307 315 306 307 307 307
5 3 4 2 2 0 0 3 5 5 15 25 20 20 16 7 9 9 20 21 21 12 3 1 1 0 0 0 1 1 1 2 3 3 12 22 44 44 58 75 75 86 92 98 98 101 107 110 110 116 125 130 135 135 140 132 132 132 132 132 132 130 141 152 152 152 152 151 145 145 144 152 159 159 163 169 181 181 188 203 203 227 255 286 286 303
5 3 3 5 5 4 0 6 20 20 41 37 19 19 10 7 7 7 6 6 6 5 2 0 0 nan nan 0 0 0 10 17 8 8 15 6 8 8 38 64 64 80 92 98 98 98 102 103 103 106 105 106 112 112 112 108 108 109 107 108 108 114 115 123 123 128 128 132 135 135 135 143 151 151 154 157 165 165 172 184 184 211 239 286 286 310
10 7 0 0 0 4 6 11 27 27 35 26 20 20 14 7 5 5 4 2 2 1 0 1 1 1 1 1 3 3 6 16 55 55 71 48 71 71 56 50 50 49 82 85 85 90 89 87 87 87 92 93 98 98 96 91 91 90 93 89 89 95 96 103 103 111 119 126 133 133 143 147 156 156 160 160 168 168 173 186 186 205 239 279 279 314
7 8 1 2 2 2 19 29 29 29 21 9 8 8 5 5 5 5 3 1 1 0 0 1 1 3 1 1 3 3 4 1 6 6 27 42 50 50 52 47 47 52 65 64 64 62 63 70 70 74 77 78 81 81 79 71 71 75 76 79 79 85 86 91 91 102 110 121 129 129 141 150 160 160 166 161 172 172 172 187 187 207 237 272 272 298
7 1 3 3 3 22 29 17 11 11 5 2 2 2 2 6 5 5 3 2 2 2 2 3 3 1 nan 2 9 9 5 2 1 1 1 6 13 13 14 13 13 22 29 35 35 41 52 58 58 60 62 57 67 67 65 56 56 64 67 73 73 78 80 90 90 98 109 122 133 133 146 151 161 161 167 167 168 168 169 179 179 195 225 242 242 266
5 1 23 58 58 26 9 4 0 0 2 2 3 3 2 2 4 4 5 4 4 3 1 4 4 3 2 2 3 3 5 2 1 1 1 0 1 1 1 2 2 1 1 2 2 3 23 44 44 49 52 49 53 53 55 50 50 56 62 69 69 74 81 88 88 100 116 130 146 146 151 154 159 159 166 172 167 167 173 177 177 189 212 232 232 248
15 26 29 22 22 6 3 1 1 1 2 2 2 2 3 4 6 6 5 5 5 4 2 2 2 1 6 1 2 2 3 2 3 3 2 3 5 5 3 2 2 1 0 1 1 2 13 19 19 13 32 33 36 36 38 46 46 55 62 70 70 79 89 99 99 112 126 140 147 147 155 158 164 164 170 176 182 182 184 189 189 195 213 229 229 238
30 28 5 3 3 1 2 3 2 2 1 1 3 3 6 6 7 7 2 5 5 9 6 7 7 3 3 0 2 2 3 3 5 5 5 3 5 5 2 2 2 2 2 2 2 2 12 9 9 2 4 9 13 13 26 38 38 65 69 79 79 88 96 107 107 118 131 134 142 142 150 148 156 156 167 178 180 180 186 198 198 206 219 231 231 235
17 7 2 5 5 4 4 1 1 1 1 2 5 5 6 4 6 6 6 8 8 12 8 4 4 2 1 1 3 3 1 1 3 3 4 2 4 4 3 1 1 2 1 1 1 2 3 1 1 2 3 15 33 33 44 53 53 67 75 82 82 92 98 110 110 118 123 130 136 136 139 142 150 150 155 166 173 173 178 184 184 196 204 221 221 222
9 6 4 4 4 3 2 1 1 1 3 4 5 5 7 5 7 7 10 16 16 11 8 4 4 1 0 1 1 1 1 0 3 3 2 1 2 2 1 0 0 3 2 1 1 0 0 0 0 2 3 25 43 43 49 59 59 68 79 84 84 88 94 105 105 113 122 129 131 131 139 142 145 145 149 158 162 162 162 168 168 174 190 206 206 209
11 8 4 5 5 2 1 1 2 2 5 5 4 4 4 13 13 13 7 13 13 9 6 2 2 2 nan 1 nan nan 1 nan nan nan 0 1 1 1 2 0 0 1 1 0 0 1 0 0 0 1 7 43 49 49 55 62 62 73 80 86 86 89 91 103 103 110 122 130 134 134 141 144 152 152 151 154 157 157 160 164 164 164 174 188 188 201
9 9 4 3 3 2 1 3 5 5 6 7 7 7 7 15 15 15 12 9 9 4 5 1 1 3 2 1 0 0 1 nan nan nan 1 1 2 2 1 1 1 1 1 1 1 2 1 2 2 15 34 48 55 55 61 66 66 74 82 86 86 89 94 102 102 114 122 130 138 138 142 149 152 152 159 161 163 163 170 169 169 179 181 186 186 201
10 6 4 2 2 3 5 6 7 7 9 16 19 19 12 13 13 13 10 6 6 2 4 0 0 2 3 2 0 0 2 0 1 1 0 3 2 2 1 1 1 2 0 0 0 1 2 4 4 12 31 45 55 55 58 66 66 74 80 87 87 91 95 104 104 112 119 124 135 135 135 143 145 145 156 158 161 161 160 174 174 174 183 186 186 197
6 3 1 2 2 7 10 6 9 9 19 27 18 18 13 11 10 10 6 1 1 3 3 4 4 2 1 3 3 3 3 1 0 0 0 1 0 0 0 0 0 0 2 1 1 2 3 4 4 3 16 39 52 52 56 64 64 73 80 87 87 91 97 102 102 112 115 120 125 125 131 134 133 133 139 143 145 145 152 154 154 165 170 176 176 181
4 2 2 8 8 11 14 16 26 26 32 29 18 18 13 8 7 7 6 2 2 5 6 3 3 2 3 4 3 3 4 0 0 0 0 nan 1 1 0 0 0 1 1 1 1 2 3 2 2 2 18 42 49 49 56 63 63 73 80 86 86 91 93 97 97 104 108 116 118 118 119 119 122 122 124 123 127 127 133 141 141 147 157 162 162 163
6 7 8 13 13 14 14 14 27 27 45 28 25 25 12 6 8 8 12 7 7 10 8 4 4 3 4 3 3 3 4 1 nan nan nan 1 0 0 0 0 0 0 0 0 0 1 2 1 1 1 16 45 47 47 54 61 61 70 76 79 79 81 88 92 92 97 100 105 111 111 115 116 119 119 124 119 122 122 125 136 136 143 146 148 148 144
15 15 17 17 17 20 23 25 32 32 30 20 14 14 16 15 11 11 13 12 12 9 6 4 4 5 6 7 3 3 3 2 nan nan nan 1 1 1 0 0 0 0 0 0 0 0 0 0 0 1 6 34 43 43 53 57 57 63 67 72 72 77 81 86 86 92 98 102 107 107 112 121 123 123 127 126 127 127 128 133 133 137 138 141 141 142
16 15 20 26 26 53 56 42 30 30 14 10 14 14 22 27 25 25 15 11 11 6 4 2 2 3 6 8 1 1 1 2 nan nan nan 1 1 1 nan 0 0 0 0 0 0 1 nan 0 0 1 1 14 35 35 43 49 49 54 59 64 64 69 73 79 79 81 89 95 103 103 105 117 118 118 115 115 115 115 116 120 120 123 127 131 131 132
35 40 47 72 72 109 103 77 62 62 42 18 12 12 14 22 18 18 13 6 6 4 5 3 3 2 2 1 0 0 0 1 1 1 nan nan nan nan 0 1 1 0 2 0 0 nan nan nan nan nan nan 3 23 23 34 38 38 47 53 55 55 59 62 64 64 69 72 77 79 79 82 86 91 91 88 92 90 90 91 98 98 101 109 105 105 111
80 106 124 116 116 87 65 58 62 62 73 58 24 24 18 14 13 13 10 5 5 2 0 2 2 3 3 1 0 0 0 2 1 1 nan nan 0 0 1 1 1 0 0 nan nan nan 3 1 1 0 0 nan 5 5 25 34 34 41 44 48 48 48 51 51 51 52 54 57 61 61 68 71 76 76 78 81 83 83 86 91 91 92 92 89 89 99
94 95 73 49 49 38 37 44 52 52 59 64 71 71 41 14 8 8 7 4 4 2 0 1 1 2 3 nan 0 0 nan 1 1 1 0 1 1 1 0 0 0 0 nan nan nan 3 14 6 6 1 0 nan 0 0 12 25 25 32 35 37 37 42 46 44 44 47 47 48 52 52 57 61 69 69 71 74 80 80 83 87 87 90 89 73 73 48
61 44 30 25 25 26 34 39 44 44 46 50 59 59 42 13 8 8 4 4 4 2 1 2 2 2 2 0 nan nan 0 0 0 0 0 1 1 1 nan nan nan 0 nan 1 1 1 3 1 1 0 nan 0 nan nan 4 16 16 22 29 36 36 42 39 40 40 41 46 46 50 50 55 57 60 60 64 66 71 71 78 82 82 82 72 63 63 45
13 11 13 16 16 23 25 17 27 27 37 45 51 51 38 11 8 8 5 4 4 2 2 4 4 3 2 1 0 0 nan nan nan nan nan 1 0 0 nan nan nan 0 0 1 1 0 nan nan nan nan nan 1 nan nan nan 4 4 8 15 30 30 30 31 36 36 41 46 50 52 52 56 60 61 61 62 67 69 69 73 73 73 65 49 47 47 50
0 1 2 6 6 8 7 4 13 13 30 40 38 38 28 9 5 5 4 3 3 2 1 2 2 2 1 1 1 1 nan nan nan nan nan 2 1 1 0 nan nan nan nan 0 0 nan nan nan nan nan nan 0 0 0 nan nan nan 1 0 6 6 12 23 27 27 33 40 47 48 48 52 54 57 57 58 60 65 65 69 69 69 58 37 34 34 30
2 2 1 2 2 2 2 3 1 1 2 3 3 3 7 6 4 4 2 2 2 2 1 2 2 4 4 2 nan nan 0 nan 0 0 2 nan 4 4 4 0 0 nan 0 nan nan nan nan nan nan nan nan nan nan nan nan nan nan nan nan nan nan nan 3 8 8 10 12 21 26 26 28 29 31 31 35 39 46 46 50 51 51 49 26 8 8 12
5 4 3 4 4 3 3 2 2 2 2 1 2 2 2 2 4 4 3 2 2 1 1 1 1 1 1 2 2 2 0 nan 2 2 10 1 1 1 2 1 1 1 1 0 0 nan nan nan nan nan nan nan nan nan nan nan nan nan nan nan nan nan nan 2 2 1 3 5 8 8 15 16 20 20 25 29 33 33 37 40 40 41 40 6 6 7
5 7 7 4 4 3 2 3 2 2 2 2 2 2 1 1 1 1 2 0 0 0 0 nan nan 0 0 1 1 1 nan nan 2 2 7 1 0 0 0 0 0 0 0 nan nan nan nan nan nan nan nan nan nan nan nan nan nan nan nan nan nan nan nan nan nan nan 0 0 nan nan 1 2 11 11 13 18 22 22 27 32 32 39 46 25 25 10
5 7 5 3 3 3 2 3 2 2 2 1 1 1 1 0 0 0 1 0 0 0 0 nan nan nan nan 0 0 0 nan nan 0 0 7 0 nan nan nan 0 0 0 nan 0 0 nan nan nan nan 2 nan nan nan nan nan nan nan nan nan nan nan nan nan nan nan nan nan nan nan nan nan nan 0 0 3 8 15 15 22 27 27 33 40 46 46 34
6 6 3 3 3 2 2 2 1 1 1 0 nan nan nan nan 0 0 nan nan nan 0 2 1 1 0 nan nan 0 0 0 nan 2 2 7 1 nan nan nan 0 0 0 nan 0 0 0 nan 1 1 2 2 0 nan nan nan nan nan nan nan nan nan nan nan nan nan nan nan nan nan nan nan nan nan nan 0 10 16 16 21 25 25 28 33 42 42 45
5 5 3 2 2 1 2 0 0 0 0 nan nan nan nan nan nan nan nan 0 0 nan nan 3 3 1 4 0 nan nan nan nan 0 0 3 0 nan nan nan nan nan 1 nan nan nan 0 nan 0 0 1 0 nan nan nan nan nan nan nan nan nan nan nan nan nan nan nan nan nan nan nan nan nan nan nan 2 10 11 11 18 23 23 23 27 32 32 38
4 3 3 2 2 1 0 0 0 0 nan nan nan nan nan nan nan nan nan 0 0 1 nan nan nan nan 3 9 1 1 nan nan 0 0 0 0 nan nan nan nan nan 1 0 nan nan nan nan nan nan 0 0 nan 0 0 0 nan nan nan nan nan nan nan nan nan nan nan nan nan 0 0 1 nan nan nan 1 2 1 1 1 1 1 10 17 20 20 29
3 2 4 4 4 1 0 0 0 0 nan nan 0 0 nan nan 0 0 nan 0 0 nan nan nan nan nan nan nan 4 4 5 2 nan nan nan 0 nan nan nan nan nan nan nan nan nan 0 nan nan nan nan nan nan nan nan nan nan nan nan nan nan nan nan nan nan nan nan nan nan 0 0 nan nan nan nan nan nan nan nan nan nan nan 1 2 0 0 12
3 1 3 4 4 1 nan nan nan nan nan 0 0 0 0 0 nan nan 0 0 0 0 nan 0 0 nan nan 1 1 1 2 nan 0 0 nan nan nan nan nan nan nan nan 0 nan nan nan nan nan nan 0 0 nan nan nan nan nan nan nan nan nan nan nan nan nan nan nan nan nan nan nan nan nan nan nan nan nan nan nan nan nan nan nan 0 nan nan 0
4 2 2 1 1 2 0 0 nan nan nan nan nan nan nan nan nan nan nan 0 0 0 0 nan nan 0 0 nan nan nan nan nan nan nan nan nan nan nan nan nan nan nan nan 0 0 nan nan nan nan 0 0 nan nan nan nan nan nan 0 1 nan nan nan nan nan nan nan nan nan nan nan nan nan 0 0 nan nan nan nan nan nan nan nan nan nan nan nan
6 3 1 0 0 nan nan 0 0 0 0 nan nan nan nan nan nan nan nan nan nan nan nan nan nan 0 0 0 nan nan nan nan nan nan nan nan nan nan nan nan nan nan nan nan nan nan 0 0 0 1 0 nan nan nan nan nan nan nan 0 nan nan nan nan nan nan nan nan nan nan nan 0 nan nan nan nan nan nan nan nan nan nan 1 1 nan nan nan
3 1 nan nan nan nan 0 1 1 1 0 nan nan nan nan nan 0 0 nan 0 0 0 nan nan nan 1 0 nan nan nan nan nan nan nan nan nan nan nan nan nan nan nan nan nan nan nan 0 1 1 0 nan nan nan nan nan nan nan nan nan nan nan 0 nan nan nan nan nan nan nan nan nan nan nan nan nan nan nan nan nan 0 0 4 4 nan nan nan
2 0 0 0 0 0 0 nan nan nan nan nan nan nan nan 0 1 1 nan nan nan 1 0 0 0 1 0 nan nan nan nan nan nan nan nan nan nan nan nan nan nan 1 0 nan nan nan 0 0 0 nan nan nan nan nan nan nan nan nan nan nan nan nan nan nan nan nan nan nan nan nan nan nan nan nan nan nan nan nan nan nan nan nan 2 0 0 0
1 1 1 0 0 0 nan nan nan nan nan nan nan nan nan 0 0 0 nan 0 0 1 0 1 1 1 nan nan nan nan nan nan nan nan nan nan 4 4 1 nan nan nan nan nan nan nan nan nan nan nan nan nan nan nan nan nan nan nan nan nan nan nan nan nan nan nan nan nan nan nan nan nan nan nan 0 0 1 1 nan nan nan nan 0 1 1 1
1 1 0 0 0 0 0 nan nan nan nan nan nan nan nan nan nan nan nan nan nan 0 0 1 1 0 nan nan nan nan nan nan nan nan nan nan nan nan nan 0 0 nan nan nan nan nan nan nan nan nan nan nan nan nan nan nan nan nan nan nan nan nan nan nan nan nan nan nan nan nan 0 nan 0 0 0 1 1 1 3 1 1 2 1 1 1 1
1 0 1 0 0 nan nan 0 nan nan nan nan nan nan nan nan nan nan nan 0 0 nan 0 0 0 0 nan nan nan nan nan nan nan nan nan nan nan nan nan nan nan 0 nan nan nan nan nan nan nan nan nan nan nan nan nan nan nan nan nan nan nan nan nan nan nan nan nan nan nan nan 0 1 0 0 0 0 0 0 1 1 1 1 0 1 1 1
1 0 0 0 0 0 0 0 nan nan 0 0 nan nan 0 nan 0 0 0 0 0 0 1 0 0 0 nan nan nan nan nan nan nan nan nan nan nan nan nan nan nan nan nan nan nan nan nan nan nan nan nan nan nan nan nan nan nan nan nan nan nan nan nan nan nan nan nan nan 0 0 0 0 0 0 1 0 0 0 1 nan nan nan 0 1 1 4
1 0 nan 1 1 0 nan nan nan nan nan 0 nan nan nan 0 6 6 nan nan nan 0 0 0 0 nan nan nan nan nan nan nan nan nan nan nan nan nan nan nan nan nan nan nan nan nan nan nan nan nan nan nan nan nan nan nan nan nan nan nan nan nan nan nan nan 0 nan nan nan nan nan nan nan nan nan 0 0 0 0 nan nan 0 3 5 5 5
2 0 0 0 0 0 nan nan nan nan nan nan nan nan nan nan nan nan nan nan nan nan nan 0 0 nan nan nan nan nan nan nan nan nan nan nan nan nan nan nan nan nan nan nan nan nan nan nan nan nan nan nan nan nan nan nan nan nan nan nan nan nan nan 0 0 0 0 0 0 0 1 0 nan nan nan nan 1 1 1 nan nan nan 2 6 6 5
2 1 0 0 0 0 0 nan nan nan nan nan nan nan nan nan nan nan nan nan nan nan nan nan nan nan nan nan nan nan nan nan nan nan nan nan nan nan nan 0 0 0 0 nan nan nan nan nan nan nan nan nan nan nan nan nan nan 1 nan nan nan nan nan nan nan 0 2 1 0 0 0 0 nan nan nan nan 0 0 nan nan nan nan nan nan nan 1
CIN
nan nan -0 -0 -0 -0 -0 -0 -0 -0 -0 -0 -0 -0 -0 -0 -0 -0 -0 -0 -0 -0 -0 -0 -0 -0 -0 -0 -0 -0 -0 -0 -0 -0 -0 -0 -0 -0 -0 -0 -0 -0 -0 -0 -0 -0 -0 -0 -0 -0 -0 -0 -0 -0 -0 -0 -0 -0 -0 -0 -0 -0 -0 -0 -0 -0 -0 -0 -0 -0 -0 -0 -0 -0 -0 -0 -0 -0 -0 -0 -0 -0 -0 -0 -0 -0
-0 -0 -0 -0 -0 -0 -0 -0 -0 -0 -0 -0 -0 -0 -0 -0 -0 -0 -0 -0 -0 -0 -0 -0 -0 -0 -0 -0 -0 -0 -0 -0 -0 -0 -0 -0 -0 -0 -0 -0 -0 -0 -0 -0 -0 -0 -0 -0 -0 -0 -0 -0 -0 -0 -0 -0 -0 -0 -0 -0 -0 -0 -0 -0 -0 -0 -0 -0 -0 -0 -0 -0 -0 -0 -0 -0 -0 -0 -0 -0 -0 -0 -0 -0 -0 -0
-0 -0 -0 -0 -0 -0 -0 -0 -0 -0 -0 -0 -0 -0 -0 -0 -0 -0 -0 -0 -0 -0 -0 -0 -0 -0 -0 -0 -0 -0 -0 -0 -0 -0 -0 -0 -0 -0 -0 -0 -0 -0 -0 -0 -0 -0 -0 -0 -0 -0 -0 -0 -0 -0 -0 -0 -0 -0 -0 -0 -0 -0 -0 -0 -0 -0 -0 -0 -0 -0 -0 -0 -0 -0 -0 -0 -0 -0 -0 -0 -0 -0 -0 -0 -0 -0
-0 -0 -0 -0 -0 -0 -0 -0 -0 -0 -0 -0 -0 -0 -0 -0 -0 -0 -0 -0 -0 -0 -0 -0 -0 -0 -0 -0 -0 -0 -0 -0 -0 -0 -0 -0 -0 -0 -0 -0 -0 -0 -0 -0 -0 -0 -0 -0 -0 -0 -0 -0 -0 -0 -0 -0 -0 -0 -0 -0 -0 -0 -0 -0 -0 -0 -0 -0 -0 -0 -0 -0 -0 -0 -0 -0 -0 -0 -0 -0 -0 -0 -0 -0 -0 -0
-0 -0 -0 -0 -0 -0 -0 -0 -0 -0 -0 -0 -0 -0 -0 -0 -0 -0 -0 -0 -0 -0 -0 -0 -0 -0 -0 -0 -0 -0 -0 -0 -0 -0 -0 -0 -0 -0 -0 -0 -0 -0 -0 -0 -0 -0 -0 -0 -0 -0 -0 -0 -0 -0 -0 -0 -0 -0 -0 -0 -0 -0 -0 -0 -0 -0 -0 -0 -0 -0 -0 -0 -0 -0 -0 -0 -0 -0 -0 -0 -0 -0 -0 -0 -0 -0
-0 -0 -0 -0 -0 -0 -0 -0 -0 -0 -0 -0 -0 -0 -0 -0 -0 -0 -0 -0 -0 -0 -0 -0 -0 -0 -0 -0 -0 -0 -0 -0 -0 -0 -0 -0 -0 -0 -0 -0 -0 -0 -0 -0 -0 -0 -0 -0 -0 -0 -0 -0 -0 -0 -0 -0 -0 -0 -0 -0 -0 -0 -0 -0 -0 -0 -0 -0 -0 -0 -0 -0 -0 -0 -0 -0 -0 -0 -0 -0 -0 -0 -0 -0 -0 -0
-0 -0 -0 -0 -0 -0 -0 -0 -0 -0 -0 -0 -0 -0 -0 -0 -0 -0 -0 -0 -0 -0 -0 -0 -0 -0 -0 -0 -0 -0 -0 -0 -0 -0 -0 -0 -0 -0 -0 -0 -0 -0 -0 -0 -0 -0 -0 -0 -0 -0 -0 -0 -0 -0 -0 -0 -0 -0 -0 -0 -0 -0 -0 -0 -0 -0 -0 -0 -0 -0 -0 -0 -0 -0 -0 -0 -0 -0 -0 -0 -0 -0 -0 -0 -0 -0
-0 -0 -0 -0 -0 -0 -0 -0 -0 -0 -0 -0 -0 -0 -0 -0 -0 -0 -0 -0 -0 -0 -0 -0 -0 -0 -0 -0 -0 -0 -0 -0 -0 -0 -0 -0 -0 -0 -0 -0 -0 -0 -0 -0 -0 -0 -0 -0 -0 -0 -0 -0 -0 -0 -0 -0 -0 -0 -0 -0 -0 -0 -0 -0 -0 -0 -0 -0 -0 -0 -0 -0 -0 -0 -0 -0 -0 -0 -0 -0 -0 -0 -0 -0 -0 -0
-0 -0 -0 -0 -0 -0 -0 -0 -1 -1 -2 -0 -0 -0 -0 -0 -0 -0 -0 -0 -0 -0 -0 -0 -0 nan nan -0 -0 -0 -0 -0 -0 -0 -0 -0 -0 -0 -0 -0 -0 -0 -0 -0 -0 -0 -0 -0 -0 -0 -0 -0 -0 -0 -0 -0 -0 -0 -0 -0 -0 -0 -0 -0 -0 -0 -0 -0 -0 -0 -0 -0 -0 -0 -0 -0 -0 -0 -0 -0 -0 -0 -0 -0 -0 -0
-0 -0 -0 -1 -1 -0 -0 -0 -1 -1 -0 -0 -0 -0 -0 -0 -0 -0 -0 -0 -0 -0 -0 -0 -0 -0 -0 -0 -0 -0 -0 -0 -0 -0 -0 -0 -0 -0 -0 -0 -0 -0 -0 -0 -0 -0 -0 -0 -0 -0 -0 -0 -0 -0 -0 -0 -0 -0 -0 -0 -0 -0 -0 -0 -0 -0 -0 -0 -0 -0 -0 -0 -0 -0 -0 -0 -0 -0 -0 -0 -0 -0 -0 -0 -0 -0
-0 -0 -0 -0 -0 -0 -0 -0 -0 -0 -0 -0 -0 -0 -0 -0 -0 -0 -0 -0 -0 -0 -0 -0 -0 -0 -0 -0 -0 -0 -0 -0 -0 -0 -0 -0 -0 -0 -0 -0 -0 -0 -0 -0 -0 -0 -0 -0 -0 -0 -0 -0 -0 -0 -0 -0 -0 -0 -0 -0 -0 -0 -0 -0 -0 -0 -0 -0 -0 -0 -0 -0 -0 -0 -0 -0 -0 -0 -0 -0 -0 -0 -0 -0 -0 -0
-0 -0 -0 -0 -0 -0 -0 -0 -0 -0 -0 -0 -0 -0 -0 -0 -0 -0 -0 -0 -0 -0 -0 -0 -0 -0 nan -0 -0 -0 -0 -0 -0 -0 -0 -0 -0 -0 -0 -0 -0 -0 -0 -0 -0 -0 -0 -0 -0 -0 -0 -0 -0 -0 -0 -0 -0 -0 -0 -0 -0 -0 -0 -0 -0 -0 -0 -0 -0 -0 -0 -0 -0 -0 -0 -0 -0 -0 -0 -0 -0 -0 -0 -0 -0 -0
-0 -7 -0 -0 -0 -0 -0 -0 -0 -0 -0 -0 -0 -0 -0 -0 -0 -0 -0 -0 -0 -0 -0 -0 -0 -0 -1 -0 -0 -0 -0 -0 -0 -0 -0 -0 -0 -0 -0 -0 -0 -0 -0 -0 -0 -0 -0 -0 -0 -0 -0 -0 -0 -0 -0 -0 -0 -0 -0 -0 -0 -0 -0 -0 -0 -0 -0 -0 -0 -0 -0 -0 -0 -0 -0 -0 -0 -0 -0 -0 -0 -0 -0 -0 -0 -0
-0 -0 -0 -0 -0 -0 -0 -0 -0 -0 -0 -0 -0 -0 -0 -0 -0 -0 -0 -0 -0 -0 -0 -0 -0 -1 -0 -1 -0 -0 -0 -0 -0 -0 -0 -0 -0 -0 -0 -0 -0 -0 -0 -0 -0 -0 -0 -0 -0 -0 -0 -0 -0 -0 -0 -0 -0 -0 -0 -0 -0 -0 -0 -0 -0 -0 -0 -0 -0 -0 -0 -0 -0 -0 -0 -0 -0 -0 -0 -0 -0 -0 -0 -0 -0 -0
-0 -0 -0 -0 -0 -1 -0 -0 -0 -0 -0 -0 -0 -0 -0 -0 -0 -0 -0 -0 -0 -0 -0 -0 -0 -1 -0 -0 -0 -0 -0 -0 -0 -0 -0 -0 -0 -0 -0 -0 -0 -0 -0 -0 -0 -0 -0 -0 -0 -0 -0 -0 -0 -0 -0 -0 -0 -0 -0 -0 -0 -0 -0 -0 -0 -0 -0 -0 -0 -0 -0 -0 -0 -0 -0 -0 -0 -0 -0 -0 -0 -0 -0 -0 -0 -0
-0 -0 -0 -0 -0 -0 -0 -0 -0 -0 -0 -0 -0 -0 -0 -0 -0 -0 -0 -0 -0 -0 -2 -0 -0 -1 -0 -0 -0 -0 -0 -0 -0 -0 -0 -0 -0 -0 -0 -0 -0 -0 -0 -0 -0 -0 -0 -0 -0 -0 -0 -0 -0 -0 -0 -0 -0 -0 -0 -0 -0 -0 -0 -0 -0 -0 -0 -0 -0 -0 -0 -0 -0 -0 -0 -0 -0 -0 -0 -0 -0 -0 -0 -0 -0 -0
-0 -0 -0 -0 -0 -0 -0 -0 -0 -0 -0 -0 -0 -0 -0 -0 -0 -0 -0 -0 -0 -1 -1 -1 -1 -0 -0 -0 -0 -0 -0 -2 -0 -0 -0 -0 -0 -0 -0 -1 -1 -0 -0 -0 -0 -0 -0 -0 -0 -0 -0 -0 -0 -0 -0 -0 -0 -0 -0 -0 -0 -0 -0 -0 -0 -0 -0 -0 -0 -0 -0 -0 -0 -0 -0 -0 -0 -0 -0 -0 -0 -0 -0 -0 -0 -0
-0 -0 -0 -0 -0 -0 -0 -0 -0 -0 -0 -0 -0 -0 -1 -0 -0 -0 -3 -1 -1 -1 -1 -2 -2 -0 nan -0 nan nan -0 nan nan nan -0 -0 -0 -0 -0 -0 -0 -0 -0 -0 -0 -0 -0 -0 -0 -0 -0 -0 -0 -0 -0 -0 -0 -0 -0 -0 -0 -0 -0 -0 -0 -0 -0 -0 -0 -0 -0 -0 -0 -0 -0 -0 -0 -0 -0 -0 -0 -0 -0 -0 -0 -0
-0 -0 -0 -0 -0 -0 -0 -0 -0 -0 -0 -0 -2 -2 -3 -1 -1 -1 -1 -2 -2 -1 -0 -1 -1 -0 -0 -0 -0 -0 -0 nan nan nan -1 -0 -0 -0 -0 -0 -0 -0 -0 -0 -0 -0 -0 -0 -0 -0 -0 -0 -0 -0 -0 -0 -0 -0 -0 -0 -0 -0 -0 -0 -0 -0 -0 -0 -0 -0 -0 -0 -0 -0 -0 -0 -0 -0 -0 -0 -0 -0 -0 -0 -0 -0
-0 -0 -0 -0 -0 -0 -0 -0 -0 -0 -0 -0 -0 -0 -0 -2 -1 -1 -1 -2 -2 -2 -0 -1 -1 -0 -0 -0 -0 -0 -0 -4 -2 -2 -0 -0 -0 -0 -0 -0 -0 -0 -0 -0 -0 -0 -0 -0 -0 -0 -0 -0 -0 -0 -0 -0 -0 -0 -0 -0 -0 -0 -0 -0 -0 -0 -0 -0 -0 -0 -0 -0 -0 -0 -0 -0 -0 -0 -0 -0 -0 -0 -0 -0 -0 -0
-0 -0 -0 -0 -0 -0 -0 -0 -0 -0 -0 -1 -2 -2 -4 -3 -1 -1 -2 -5 -5 -0 -0 -0 -0 -0 -0 -0 -0 -0 -0 -3 -0 -0 -4 -0 -0 -0 -0 -0 -0 -0 -0 -0 -0 -0 -0 -0 -0 -0 -0 -0 -0 -0 -0 -0 -0 -0 -0 -0 -0 -0 -0 -0 -0 -0 -0 -0 -0 -0 -0 -0 -0 -0 -0 -0 -0 -0 -0 -0 -0 -0 -0 -0 -0 -0
-0 -0 -0 -0 -0 -0 -0 -0 -0 -0 -1 -2 -1 -1 -2 -2 -1 -1 -1 -3 -3 -0 -0 -0 -0 -0 -1 -0 -0 -0 -4 -7 -0 -0 -0 nan -0 -0 -0 -0 -0 -0 -0 -0 -0 -0 -0 -0 -0 -0 -0 -0 -0 -0 -0 -0 -0 -0 -0 -0 -0 -0 -0 -0 -0 -0 -0 -0 -0 -0 -0 -0 -0 -0 -0 -0 -0 -0 -0 -0 -0 -0 -0 -0 -0 -0
-0 -0 -0 -0 -0 -0 -0 -4 -2 -2 -0 -1 -0 -0 -0 -2 -1 -1 -0 -0 -0 -0 -0 -0 -0 -1 -1 -0 -0 -0 -0 -0 nan nan nan -0 -0 -0 -0 -0 -0 -0 -0 -0 -0 -0 -0 -0 -0 -0 -0 -0 -0 -0 -0 -0 -0 -0 -0 -0 -0 -0 -0 -0 -0 -0 -0 -0 -0 -0 -0 -0 -0 -0 -0 -0 -0 -0 -0 -0 -0 -0 -0 -0 -0 -0
-0 -0 -0 -0 -0 -2 -2 -2 -1 -1 -0 -0 -0 -0 -3 -1 -0 -0 -0 -0 -0 -0 -0 -2 -2 -0 -0 -0 -0 -0 -0 -0 nan nan nan -0 -0 -0 -0 -0 -0 -0 -0 -0 -0 -0 -0 -0 -0 -0 -0 -0 -0 -0 -0 -0 -0 -0 -0 -0 -0 -0 -0 -0 -0 -0 -0 -0 -0 -0 -0 -0 -0 -0 -0 -0 -0 -0 -0 -0 -0 -0 -0 -0 -0 -0
-0 -0 -0 -1 -1 -3 -0 -0 -0 -0 -0 -0 -0 -0 -0 -0 -0 -0 -0 -0 -0 -1 -1 -0 -0 -0 -0 -0 -0 -0 -0 -0 nan nan nan -0 -0 -0 nan -0 -0 -0 -0 -0 -0 -0 nan -0 -0 -0 -0 -0 -0 -0 -0 -0 -0 -0 -0 -0 -0 -0 -0 -0 -0 -0 -0 -0 -0 -0 -0 -0 -0 -0 -0 -0 -0 -0 -0 -0 -0 -0 -0 -0 -0 -0
-0 -0 -0 -0 -0 -0 -0 -0 -0 -0 -0 -0 -0 -0 -0 -0 -0 -0 -0 -0 -0 -0 -0 -0 -0 -0 -0 -0 -0 -0 -0 -0 -0 -0 nan nan nan nan -0 -0 -0 -0 -0 -0 -0 nan nan nan nan nan nan -0 -0 -0 -0 -0 -0 -0 -0 -0 -0 -0 -0 -0 -0 -0 -0 -0 -0 -0 -0 -0 -0 -0 -0 -0 -0 -0 -0 -0 -0 -0 -0 -0 -0 -0
-0 -0 -0 -0 -0 -0 -0 -0 -0 -0 -0 -0 -0 -0 -0 -0 -0 -0 -0 -0 -0 -0 -0 -0 -0 -0 -0 -0 -0 -0 -0 -0 -0 -0 nan nan -0 -0 -0 -0 -0 -0 -0 nan nan nan -0 -0 -0 -0 -0 nan -0 -0 -0 -0 -0 -0 -0 -0 -0 -0 -0 -0 -0 -0 -0 -0 -0 -0 -0 -0 -0 -0 -0 -0 -0 -0 -0 -0 -0 -0 -0 -0 -0 -0
-0 -0 -0 -0 -0 -0 -0 -0 -0 -0 -0 -0 -0 -0 -0 -0 -0 -0 -0 -0 -0 -0 -0 -0 -0 -0 -0 nan -0 -0 nan -0 -0 -0 -0 -0 -0 -0 -0 -0 -0 -0 nan nan nan -0 -0 -0 -0 -0 -0 nan -0 -0 -0 -0 -0 -0 -0 -0 -0 -0 -0 -0 -0 -0 -0 -0 -0 -0 -0 -0 -0 -0 -0 -0 -0 -0 -0 -0 -0 -0 -0 -0 -0 -0
-0 -0 -0 -0 -0 -0 -0 -0 -0 -0 -0 -0 -0 -0 -0 -0 -0 -0 -0 -0 -0 -0 -0 -0 -0 -0 -0 -0 nan nan -0 -0 -0 -0 -0 -0 -0 -0 nan nan nan -1 nan -0 -0 -0 -0 -0 -0 -0 nan -0 nan nan -0 -0 -0 -0 -0 -0 -0 -0 -0 -0 -0 -0 -0 -0 -0 -0 -0 -0 -0 -0 -0 -0 -0 -0 -0 -0 -0 -0 -0 -0 -0 -0
-0 -0 -0 -0 -0 -0 -0 -0 -0 -0 -0 -0 -0 -0 -0 -0 -0 -0 -0 -0 -0 -0 -0 -0 -0 -0 -0 -0 -0 -0 nan nan nan nan nan -0 -0 -0 nan nan nan -0 -0 -0 -0 -0 nan nan nan nan nan -0 nan nan nan -0 -0 -0 -0 -0 -0 -0 -0 -0 -0 -0 -0 -0 -0 -0 -0 -0 -0 -0 -0 -0 -0 -0 -0 -0 -0 -0 -0 -3 -3 -2
-0 -0 -0 -0 -0 -0 -0 -0 -0 -0 -0 -0 -0 -0 -0 -0 -0 -0 -0 -0 -0 -0 -0 -0 -0 -0 -0 -0 -0 -0 nan nan nan nan nan -0 -0 -0 -0 nan nan nan nan -0 -0 nan nan nan nan nan nan -0 -0 -0 nan nan nan -0 -0 -0 -0 -0 -0 -0 -0 -0 -0 -0 -0 -0 -0 -0 -0 -0 -0 -0 -0 -0 -0 -0 -0 -0 -2 -2 -2 -2
-0 -0 -0 -0 -0 -0 -0 -0 -0 -0 -0 -0 -0 -0 -0 -0 -0 -0 -0 -0 -0 -0 -0 -0 -0 -0 -0 -0 nan nan -0 nan -0 -0 -0 nan -0 -0 -0 -0 -0 nan -0 nan nan nan nan nan nan nan nan nan nan nan nan nan nan nan nan nan nan nan -0 -0 -0 -0 -0 -0 -0 -0 -0 -0 -0 -0 -0 -0 -0 -0 -0 -0 -0 -0 -0 -1 -1 -0
-0 -0 -0 -0 -0 -0 -0 -0 -0 -0 -0 -0 -0 -0 -0 -0 -0 -0 -0 -0 -0 -0 -0 -0 -0 -0 -0 -0 -0 -0 -0 nan -0 -0 -0 -0 -0 -0 -0 -0 -0 -0 -0 -0 -0 nan nan nan nan nan nan nan nan nan nan nan nan nan nan nan nan nan nan -0 -0 -0 -0 -0 -0 -0 -0 -0 -0 -0 -0 -0 -0 -0 -0 -0 -0 -0 -0 -0 -0 -0
-0 -0 -0 -0 -0 -0 -0 -0 -0 -0 -0 -0 -0 -0 -0 -0 -0 -0 -0 -0 -0 -0 -0 nan nan -0 -0 -0 -0 -0 nan nan -0 -0 -0 -0 -0 -0 -0 -0 -0 -0 -0 nan nan nan nan nan nan nan nan nan nan nan nan nan nan nan nan nan nan nan nan nan nan nan -0 -0 nan nan -0 -0 -0 -0 -0 -0 -0 -0 -0 -0 -0 -0 -0 -0 -0 -0
-0 -0 -0 -0 -0 -0 -0 -0 -0 -0 -0 -0 -0 -0 -0 -0 -0 -0 -0 -0 -0 -0 -0 nan nan nan nan -0 -0 -0 nan nan -0 -0 -0 -0 nan nan nan -0 -0 -0 nan -0 -0 nan nan nan nan -0 nan nan nan nan nan nan nan nan nan nan nan nan nan nan nan nan nan nan nan nan nan nan -0 -0 -0 -0 -0 -0 -0 -0 -0 -0 -0 -0 -0 -0
-0 -0 -0 -0 -0 -0 -0 -0 -0 -0 -0 -0 nan nan nan nan -0 -0 nan nan nan -0 -0 -0 -0 -1 nan nan -0 -0 -0 nan -0 -0 -0 -0 nan nan nan -0 -0 -0 nan -0 -0 -0 nan -0 -0 -0 -0 -0 nan nan nan nan nan nan nan nan nan nan nan nan nan nan nan nan nan nan nan nan nan nan -0 -0 -0 -0 -0 -0 -0 -0 -0 -0 -0 -0
-0 -0 -0 -0 -0 -0 -0 -0 -0 -0 -0 nan nan nan nan nan nan nan nan -4 -4 nan nan -0 -0 -0 -0 -2 nan nan nan nan -0 -0 -0 -1 nan nan nan nan nan -0 nan nan nan -0 nan -0 -0 -0 -0 nan nan nan nan nan nan nan nan nan nan nan nan nan nan nan nan nan nan nan nan nan nan nan -0 -0 -0 -0 -0 -0 -0 -0 -0 -0 -0 -0
-0 -0 -0 -0 -0 -0 -0 -0 -0 -0 nan nan nan nan nan nan nan nan nan -0 -0 -4 nan nan nan nan -0 -0 -5 -5 nan nan -2 -2 -2 -2 nan nan nan nan nan -0 -0 nan nan nan nan nan nan -0 -0 nan -0 -0 -0 nan nan nan nan nan nan nan nan nan nan nan nan nan -0 -0 -0 nan nan nan -0 -0 -0 -0 -0 -0 -0 -0 -0 -0 -0 -0
-0 -0 -0 -0 -0 -0 -0 -0 -0 -0 nan nan -0 -0 nan nan -0 -0 nan -0 -0 nan nan nan nan nan nan nan -1 -1 -0 -3 nan nan nan -3 nan nan nan nan nan nan nan nan nan -0 nan nan nan nan nan nan nan nan nan nan nan nan nan nan nan nan nan nan nan nan nan nan -0 -0 nan nan nan nan nan nan nan nan nan nan nan -0 -0 -0 -0 -0
-0 -0 -0 -0 -0 -0 nan nan nan nan nan -0 -0 -0 -0 -0 nan nan -0 -0 -0 -0 nan -0 -0 nan nan -0 -0 -0 -1 nan -2 -2 nan nan nan nan nan nan nan nan -0 nan nan nan nan nan nan -0 -0 nan nan nan nan nan nan nan nan nan nan nan nan nan nan nan nan nan nan nan nan nan nan nan nan nan nan nan nan nan nan nan -0 nan nan -0
-0 -0 -0 -0 -0 -0 -0 -0 nan nan nan nan nan nan nan nan nan nan nan -0 -0 -0 -0 nan nan -0 -0 nan nan nan nan nan nan nan nan nan nan nan nan nan nan nan nan -0 -0 nan nan nan nan -0 -0 nan nan nan nan nan nan -0 -0 nan nan nan nan nan nan nan nan nan nan nan nan nan -0 -0 nan nan nan nan nan nan nan nan nan nan nan nan
-0 -0 -0 -0 -0 nan nan -0 -0 -0 -0 nan nan nan nan nan nan nan nan nan nan nan nan nan nan -0 -0 -0 nan nan nan nan nan nan nan nan nan nan nan nan nan nan nan nan nan nan -0 -0 -0 -0 -0 nan nan nan nan nan nan nan -0 nan nan nan nan nan nan nan nan nan nan nan -0 nan nan nan nan nan nan nan nan nan nan -0 -0 nan nan nan
-0 -0 nan nan nan nan -0 -0 -0 -0 -0 nan nan nan nan nan -0 -0 nan -0 -0 -0 nan nan nan -0 -0 nan nan nan nan nan nan nan nan nan nan nan nan nan nan nan nan nan nan nan -0 -0 -0 -0 nan nan nan nan nan nan nan nan nan nan nan -0 nan nan nan nan nan nan nan nan nan nan nan nan nan nan nan nan nan -1 -1 -0 -0 nan nan nan
-0 -0 -0 -0 -0 -0 -0 nan nan nan nan nan nan nan nan -0 -0 -0 nan nan nan -0 -0 -0 -0 -0 -0 nan nan nan nan nan nan nan nan nan nan nan nan nan nan -0 -0 nan nan nan -0 -0 -0 nan nan nan nan nan nan nan nan nan nan nan nan nan nan nan nan nan nan nan nan nan nan nan nan nan nan nan nan nan nan nan nan nan -0 -1 -1 -1
-0 -0 -0 -0 -0 -0 nan nan nan nan nan nan nan nan nan -0 -0 -0 nan -0 -0 -0 -0 -0 -0 -0 nan nan nan nan nan nan nan nan nan nan -0 -0 -2 nan nan nan nan nan nan nan nan nan nan nan nan nan nan nan nan nan nan nan nan nan nan nan nan nan nan nan nan nan nan nan nan nan nan nan -1 -1 -2 -2 nan nan nan nan -2 -2 -2 -1
-0 -0 -0 -0 -0 -0 -0 nan nan nan nan nan nan nan nan nan nan nan nan nan nan -0 -0 -0 -0 -0 nan nan nan nan nan nan nan nan nan nan nan nan nan -3 -3 nan nan nan nan nan nan nan nan nan nan nan nan nan nan nan nan nan nan nan nan nan nan nan nan nan nan nan nan nan -3 nan -1 -1 -0 -1 -2 -2 -3 -5 -5 -3 -3 -3 -3 -1
-0 -0 -0 -0 -0 nan nan -0 nan nan nan nan nan nan nan nan nan nan nan -0 -0 nan -0 -0 -0 -0 nan nan nan nan nan nan nan nan nan nan nan nan nan nan nan -3 nan nan nan nan nan nan nan nan nan nan nan nan nan nan nan nan nan nan nan nan nan nan nan nan nan nan nan nan -3 -2 -2 -2 -1 -1 -3 -3 -5 -8 -8 -7 -5 -3 -3 -2
-0 -0 -0 -0 -0 -0 -0 -0 nan nan -0 -0 nan nan -0 nan -0 -0 -0 -0 -0 -0 -0 -0 -0 -0 nan nan nan nan nan nan nan nan nan nan nan nan nan nan nan nan nan nan nan nan nan nan nan nan nan nan nan nan nan nan nan nan nan nan nan nan nan nan nan nan nan nan -4 -4 -3 -1 -0 -0 -0 -1 -2 -2 -4 nan nan nan -7 -3 -3 -1
-0 -0 nan -0 -0 -0 nan nan nan nan nan -0 nan nan nan -0 -0 -0 nan nan nan -0 -0 -0 -0 nan nan nan nan nan nan nan nan nan nan nan nan nan nan nan nan nan nan nan nan nan nan nan nan nan nan nan nan nan nan nan nan nan nan nan nan nan nan nan nan -1 nan nan nan nan nan nan nan nan nan -1 -0 -0 -0 nan nan -8 -4 -1 -1 -0
-0 -0 -0 -0 -0 -0 nan nan nan nan nan nan nan nan nan nan nan nan nan nan nan nan nan -0 -0 nan nan nan nan nan nan nan nan nan nan nan nan nan nan nan nan nan nan nan nan nan nan nan nan nan nan nan nan nan nan nan nan nan nan nan nan nan nan -0 -0 -1 -0 -2 -5 -5 -2 -3 nan nan nan nan -0 -0 -0 nan nan nan -3 -0 -0 -0
-0 -0 -0 -0 -0 -0 -0 nan nan nan nan nan nan nan nan nan nan nan nan nan nan nan nan nan nan nan nan nan nan nan nan nan nan nan nan nan nan nan nan -0 -0 -0 -0 nan nan nan nan nan nan nan nan nan nan nan nan nan nan -0 nan nan nan nan nan nan nan -2 -0 -1 -3 -3 -4 -4 nan nan nan nan -0 -0 nan nan nan nan nan nan nan -1
Wind_Speed
9 9 10 12 13 12 11 12 13 13 12 11 11 11 11 12 12 13 15 15 15 14 14 14 15 16 19 22 24 26 28 29 29 30 30 30 31 31 31 32 32 33 33 34 34 34 35 35 34 34 34 34 34 34 34 33 33 33 33 32 32 32 32 32 33 33 33 33 33 32 31 31 31 31 31 32 32 32 32 32 32 32 33 33 33 33
10 10 9 12 14 13 11 12 13 13 13 13 13 12 12 13 12 11 11 13 14 14 13 14 15 17 19 20 23 25 27 28 29 29 30 30 30 31 31 31 32 32 33 33 34 34 34 34 34 34 33 33 33 33 33 33 33 32 32 32 32 32 32 32 32 33 33 32 32 31 31 31 31 31 31 31 31 31 31 31 32 32 32 33 33 33
10 10 9 10 12 12 11 12 13 13 14 14 14 14 15 15 13 11 10 11 12 12 13 13 14 16 17 18 21 24 25 27 28 28 29 29 30 30 31 31 32 32 33 33 33 33 34 33 33 33 33 33 33 33 33 32 32 32 32 32 32 32 32 32 32 32 32 32 31 31 31 31 31 31 31 31 31 31 31 31 32 32 32 32 32 32
10 10 10 9 10 11 12 12 12 13 12 13 14 15 16 14 11 10 10 11 11 12 13 14 15 15 15 15 17 20 24 26 27 28 28 29 29 30 31 31 32 32 33 33 33 33 33 33 33 33 32 32 32 32 32 32 32 32 32 32 32 32 32 32 32 32 32 31 31 31 31 31 31 31 31 31 31 31 32 32 32 32 31 31 31 31
10 10 10 9 9 10 11 12 12 12 12 12 13 13 13 11 10 10 10 11 12 13 12 13 14 14 13 13 15 19 23 25 27 28 28 29 30 30 31 31 32 32 32 32 32 32 32 32 32 32 32 32 32 32 32 32 32 33 32 32 32 32 32 32 32 31 31 31 31 31 31 31 31 31 31 31 31 31 31 31 31 31 31 30 30 31
10 9 10 9 9 9 9 10 11 11 11 10 10 10 10 10 10 10 10 11 12 12 11 11 12 13 13 13 15 19 22 25 26 28 28 29 30 30 31 31 31 31 31 31 31 31 31 31 31 32 32 32 32 32 33 33 33 33 33 33 32 32 32 32 32 31 31 31 31 30 30 30 30 30 30 30 30 30 30 30 30 30 30 30 30 30
10 9 9 9 9 9 9 9 10 10 9 9 8 8 9 9 10 11 12 11 11 11 10 11 11 12 12 14 16 19 21 23 24 26 27 28 29 29 30 30 30 30 31 31 31 31 31 31 31 31 32 32 32 33 33 33 33 33 33 33 32 32 32 32 32 32 32 32 31 31 31 31 31 31 31 31 31 31 31 31 30 30 30 30 30 30
11 10 9 9 9 9 9 8 8 9 8 8 8 8 9 9 10 11 12 12 11 11 10 10 11 11 11 13 15 16 16 18 19 20 22 23 24 26 27 28 29 29 30 30 30 30 30 31 31 32 32 32 32 33 33 33 33 33 33 33 33 32 32 32 32 32 32 32 32 32 32 32 32 32 32 32 32 32 32 32 32 31 31 31 31 31
12 11 11 10 10 10 9 8 7 7 7 8 8 9 10 11 11 10 10 10 10 10 10 11 11 11 11 12 13 14 15 15 15 15 17 17 18 20 23 25 26 28 28 29 29 30 30 31 31 32 32 32 33 33 33 33 33 33 33 33 33 33 32 32 32 32 32 32 32 32 32 32 32 32 32 32 32 32 32 32 32 32 32 32 32 32
12 12 11 10 9 8 9 8 7 6 7 8 9 9 10 11 12 11 11 10 10 9 9 11 11 12 12 11 12 13 14 15 17 19 20 19 20 22 23 23 23 24 27 28 29 30 30 31 31 31 32 32 32 33 33 33 33 33 32 32 32 32 32 32 32 32 32 32 32 32 32 32 32 32 32 32 32 32 32 32 32 32 33 33 33 33
11 11 10 9 8 6 6 7 7 7 9 9 10 9 9 10 11 11 12 12 11 10 10 10 11 11 11 11 11 12 12 13 14 16 18 20 22 23 23 23 23 23 25 26 28 29 29 30 30 31 31 31 32 32 32 32 31 32 32 32 32 32 32 32 32 32 32 32 32 32 31 31 31 31 31 31 31 31 32 32 32 32 33 33 33 33
10 9 8 7 6 5 5 6 7 8 9 10 10 10 9 9 9 10 12 13 13 12 12 11 10 10 10 11 11 11 11 12 12 12 12 14 15 16 17 17 18 19 21 22 23 25 27 28 29 29 29 29 30 30 30 30 30 30 31 31 31 31 31 31 31 31 31 31 31 31 31 31 31 31 31 32 32 32 31 31 32 32 32 33 33 33
8 6 5 5 6 6 7 8 8 8 9 9 10 10 10 9 9 9 10 12 12 12 12 11 11 10 10 10 10 10 11 11 11 11 10 10 11 11 11 12 12 13 14 15 16 17 21 24 25 26 27 27 27 28 29 28 29 29 30 30 30 30 31 31 31 31 31 31 31 31 31 31 31 32 32 32 32 32 32 32 32 32 32 33 33 33
6 5 5 6 7 8 8 9 10 10 9 9 9 10 10 9 9 10 10 11 12 11 11 12 12 11 9 9 9 10 10 11 11 11 10 10 10 10 10 11 12 11 11 12 13 14 17 18 19 20 23 24 25 26 26 26 27 28 29 29 30 30 30 30 30 31 31 31 31 31 32 32 32 32 32 32 32 32 32 32 32 32 32 32 33 33
6 7 8 9 9 9 9 10 10 10 10 9 9 9 10 10 10 10 10 11 11 11 11 12 12 11 9 8 9 9 10 10 10 10 11 10 10 10 11 12 12 12 11 12 13 14 16 15 15 15 17 20 21 22 24 25 27 28 29 29 30 30 30 31 31 31 31 31 32 32 32 32 32 32 32 32 32 32 32 32 31 32 32 32 32 32
8 9 10 10 10 10 9 9 9 10 10 10 9 10 10 10 10 10 10 11 11 10 10 11 11 11 9 8 8 9 9 9 10 10 11 11 10 10 11 12 12 12 12 12 12 13 13 13 13 14 15 19 22 24 26 27 27 28 29 30 30 31 31 31 31 32 32 32 32 32 32 32 32 32 32 32 32 32 32 32 31 31 32 32 32 32
9 9 10 10 10 10 10 9 9 10 10 9 9 9 9 10 10 9 9 9 9 9 8 9 10 10 9 8 8 8 8 9 9 10 11 11 11 11 11 11 12 13 12 12 12 12 12 12 12 13 14 18 22 25 27 28 28 29 30 31 31 31 32 32 32 32 32 32 32 32 32 32 32 32 32 32 32 32 32 32 32 32 32 32 32 32
9 9 9 10 10 10 10 9 9 9 9 9 9 9 9 9 9 9 9 9 9 9 9 9 9 9 9 9 8 7 8 9 10 10 11 12 12 11 11 11 12 12 13 12 12 12 12 12 12 13 15 21 24 27 28 29 30 30 31 31 32 32 32 32 32 32 32 32 32 32 32 32 32 32 32 32 32 32 32 32 32 32 32 32 32 33
9 9 9 10 10 9 9 9 9 9 9 9 9 9 10 10 10 9 9 9 9 9 10 10 9 9 9 10 10 10 9 10 10 10 11 12 12 11 10 11 11 12 12 12 12 12 12 12 14 17 21 25 27 28 29 30 30 30 31 31 31 32 32 32 32 32 32 32 32 32 32 32 32 32 32 32 32 32 32 32 32 32 32 32 33 33
10 10 9 9 9 10 10 9 9 9 9 10 10 10 11 11 10 10 9 9 9 9 9 10 10 10 10 11 11 11 10 10 10 10 11 12 12 11 10 11 11 12 12 12 11 11 12 12 14 17 21 23 26 27 28 29 30 30 30 31 31 31 32 32 32 32 32 32 32 32 32 32 32 32 32 32 32 32 31 31 32 32 32 32 32 33
11 10 9 9 9 9 9 9 10 11 11 11 11 10 10 10 10 10 9 9 10 10 10 10 10 10 10 11 12 12 11 10 10 10 9 10 10 10 9 10 11 12 13 12 11 11 11 12 12 13 16 21 24 26 28 29 29 30 30 31 31 32 32 32 32 32 32 32 32 32 32 32 32 32 32 32 32 31 31 31 31 32 32 32 32 32
10 10 11 11 11 10 9 10 11 12 12 11 10 9 9 9 10 11 11 10 10 10 11 10 10 10 11 12 12 12 11 10 9 9 8 10 11 11 9 9 10 12 12 12 11 11 11 12 12 13 16 22 25 27 29 29 30 31 31 31 32 32 32 32 32 32 32 32 32 32 32 32 32 32 32 32 31 31 31 31 32 32 32 32 32 32
10 11 11 12 11 10 10 10 10 11 11 10 10 10 9 9 10 11 11 10 11 11 11 11 11 11 11 11 12 11 10 9 9 8 7 10 11 11 9 9 10 11 12 11 11 11 12 12 12 13 17 23 26 28 29 30 30 30 31 31 31 31 32 32 32 32 32 32 32 31 31 31 31 31 32 32 31 31 31 31 32 32 32 33 33 33
11 11 11 10 10 9 8 9 9 10 10 10 10 10 10 10 11 11 11 10 10 10 10 10 11 11 11 11 11 11 10 9 8 7 7 9 10 11 9 9 10 12 12 11 11 11 12 12 12 13 14 20 24 27 28 29 30 30 30 31 31 31 31 31 31 31 31 31 31 31 31 31 31 31 31 31 31 31 31 31 32 32 33 33 33 34
11 11 10 10 10 11 12 13 14 14 14 12 11 11 11 12 12 12 11 10 10 10 10 10 11 11 10 11 10 10 9 8 8 7 6 7 9 11 10 9 10 11 12 11 11 11 12 13 13 13 13 17 21 25 27 28 29 29 29 30 30 30 30 30 30 30 30 30 30 31 31 31 31 31 31 31 31 31 31 31 31 32 32 33 33 33
14 14 14 15 18 21 23 24 24 23 22 18 14 12 11 11 11 11 10 10 9 9 10 10 11 11 10 9 9 9 8 8 7 7 7 7 9 10 9 9 9 11 12 11 11 11 12 13 13 13 13 14 18 22 24 26 27 28 28 28 28 29 29 29 29 30 30 30 30 31 31 31 31 31 31 31 31 31 31 31 31 32 32 32 32 32
20 20 21 23 24 25 26 26 27 27 26 23 20 16 14 11 10 10 10 9 9 9 9 10 11 11 10 9 9 9 9 8 7 7 7 8 9 9 9 8 9 10 12 11 11 11 13 13 13 13 13 12 13 16 21 23 25 26 27 27 28 28 29 29 30 30 30 30 30 30 30 30 31 31 31 31 31 31 31 31 31 31 31 30 29 27
19 19 21 22 24 25 25 25 25 24 24 23 23 21 16 12 10 10 10 9 9 9 9 10 10 10 10 9 9 10 10 9 8 7 7 7 7 8 9 9 9 10 11 11 11 11 12 12 12 12 12 11 12 13 16 20 22 24 25 26 27 28 28 29 29 29 29 30 30 30 30 30 30 30 31 31 31 31 31 31 31 31 29 26 21 18
16 18 20 21 22 23 23 22 21 21 21 22 21 20 15 10 9 9 10 9 9 9 10 10 10 10 9 10 10 10 10 9 8 7 6 6 7 8 8 9 9 9 10 10 11 10 9 9 10 10 11 11 11 12 13 16 18 20 21 23 25 25 26 27 27 28 28 29 29 29 30 30 30 30 31 31 31 31 31 32 31 29 24 20 17 15
14 16 17 18 18 18 17 16 16 17 18 19 19 17 13 9 8 9 9 9 9 9 10 10 10 10 9 10 10 10 9 8 7 7 6 6 7 8 8 9 9 9 8 9 9 9 8 7 7 8 10 11 11 11 11 12 13 13 14 17 19 20 23 24 25 26 27 28 28 29 29 29 30 30 30 31 31 31 31 32 30 25 17 15 14 14
13 13 13 13 13 12 12 12 12 12 14 15 15 14 11 9 8 8 8 8 8 9 9 10 10 10 9 8 8 8 7 7 7 8 7 6 7 7 9 9 9 8 7 7 8 9 10 8 7 7 9 10 11 11 11 11 11 11 11 12 13 15 19 21 23 24 25 26 26 27 28 28 29 29 30 30 30 30 31 32 29 24 16 14 14 14
12 11 10 10 10 10 9 9 9 9 9 10 10 10 10 9 9 8 8 8 8 8 9 10 10 10 9 9 8 8 7 8 9 10 9 7 6 7 8 9 9 9 7 7 7 8 9 9 9 8 9 10 10 11 11 11 11 10 11 11 11 12 16 18 19 20 20 22 23 25 26 27 27 28 29 29 29 30 30 31 29 24 17 15 14 15
11 10 9 10 9 9 8 8 8 8 8 8 8 8 8 9 9 9 8 8 7 8 8 9 10 10 10 10 10 9 9 10 11 11 11 8 6 7 8 9 9 9 8 8 8 8 8 9 10 10 10 10 10 10 11 11 11 10 10 10 10 11 14 14 15 15 15 17 18 20 22 24 25 26 27 28 28 29 30 30 29 26 21 16 14 14
11 10 10 10 9 9 8 8 9 8 8 8 8 8 8 8 9 9 9 8 8 8 8 9 9 10 10 10 10 10 10 11 12 12 12 9 7 7 8 9 10 10 9 8 8 8 8 10 10 10 10 10 10 10 10 10 10 10 9 10 10 10 11 12 12 12 13 13 13 14 16 17 19 21 23 24 25 26 28 29 29 29 26 20 16 14
10 10 10 9 9 9 9 9 9 9 8 8 8 8 8 8 9 9 9 9 8 8 8 8 8 9 9 9 10 11 11 11 12 13 12 10 8 7 8 9 9 9 9 9 8 8 8 10 11 11 11 11 10 9 9 9 9 9 9 9 10 10 11 11 11 11 12 12 12 12 12 12 13 15 17 19 22 24 26 27 29 29 29 27 23 18
9 10 9 9 9 9 9 9 9 9 9 8 8 8 9 9 9 9 9 9 9 9 10 9 9 9 9 9 10 11 12 12 13 14 13 11 9 8 8 8 9 9 10 10 9 9 9 10 11 12 12 12 11 10 9 9 9 9 10 10 10 10 11 11 11 11 11 11 11 11 11 11 11 12 13 18 21 24 26 27 28 29 30 30 29 26
9 9 9 9 8 9 9 9 9 9 9 9 9 9 9 10 10 10 10 10 10 10 10 11 11 11 11 10 11 11 12 12 13 14 15 12 10 9 8 8 9 10 10 10 10 10 10 10 11 12 11 11 10 10 10 10 10 10 10 10 10 10 11 11 10 10 10 11 12 12 12 11 12 12 13 18 20 22 24 26 27 28 29 30 30 31
9 9 9 8 8 8 9 9 9 8 9 9 9 10 10 11 11 11 11 11 11 11 11 11 11 12 14 15 14 14 14 15 16 17 17 14 12 10 9 9 10 10 10 10 10 10 10 11 11 12 11 10 11 11 12 11 11 11 11 10 10 10 10 10 10 10 10 11 12 13 13 12 12 12 13 14 14 14 15 16 18 21 24 25 27 29
9 9 9 9 8 8 8 9 9 9 9 9 10 10 11 11 12 12 11 11 11 11 12 12 11 12 14 15 16 16 16 17 17 17 17 14 12 10 10 10 10 10 10 10 9 9 10 10 10 11 11 11 11 12 11 11 11 12 12 11 11 10 10 10 10 10 10 11 12 13 13 12 11 11 11 11 11 11 12 12 13 15 16 15 17 21
9 9 9 9 9 8 8 9 9 9 9 10 10 11 11 11 11 11 11 11 11 11 12 12 12 12 12 13 13 14 14 14 14 14 14 13 11 10 10 10 10 10 10 10 9 9 10 10 11 11 11 11 11 11 11 11 12 12 13 11 10 10 10 10 10 10 10 10 11 11 12 11 11 11 11 11 11 11 11 11 11 12 12 11 11 12
9 9 9 9 9 9 9 9 9 9 9 9 9 9 9 9 9 9 10 10 10 10 10 10 11 11 11 11 11 12 13 13 13 13 12 12 12 11 10 10 10 10 10 10 10 9 10 10 11 11 11 11 11 12 13 13 13 14 14 12 11 11 12 12 11 10 10 10 10 11 12 12 12 12 12 12 11 11 12 12 12 12 11 10 10 10
10 9 9 9 9 9 9 9 10 10 10 9 9 9 8 8 9 9 9 10 10 10 9 9 10 11 12 11 11 11 10 11 11 11 12 12 12 12 11 10 9 9 9 10 10 10 10 10 11 11 11 10 10 11 11 13 13 13 12 12 12 13 13 12 10 9 9 10 11 12 13 12 12 12 12 12 12 12 12 13 14 14 13 11 10 10
9 9 9 9 9 9 10 10 10 9 9 8 8 8 8 8 8 9 9 10 10 10 10 9 10 10 11 12 11 10 9 9 9 10 11 11 11 12 11 11 11 10 9 9 9 10 10 11 11 10 10 10 10 11 12 12 13 12 12 12 12 11 9 10 10 10 10 11 12 12 12 11 11 11 11 11 11 11 11 13 14 15 14 11 10 10
9 9 9 9 9 9 9 9 8 8 8 9 9 8 8 9 9 9 9 9 10 10 10 9 9 10 11 11 12 11 10 9 9 10 10 11 11 10 11 11 11 10 9 9 9 9 10 10 10 10 10 9 9 10 11 11 12 12 11 12 12 11 10 11 12 12 12 12 12 12 12 12 11 11 11 11 11 10 10 10 11 11 12 11 10 10
9 9 9 9 9 9 9 9 9 9 9 9 9 9 9 9 9 9 9 9 10 10 9 9 9 9 9 10 11 11 10 10 9 8 8 9 11 11 10 10 9 9 9 9 9 9 9 10 10 10 9 9 9 10 10 11 11 12 12 12 12 12 11 12 12 12 12 13 13 13 13 13 12 12 11 11 10 10 9 9 10 10 10 9 9 10
8 9 9 9 9 9 10 10 9 9 9 9 9 9 9 9 9 8 9 9 9 9 9 9 8 8 9 10 10 10 10 10 10 9 8 8 8 8 8 8 8 8 8 8 9 9 9 10 10 10 10 9 9 10 10 11 11 11 11 12 12 11 12 11 11 12 12 13 13 14 15 15 13 12 11 11 11 10 10 9 9 10 10 9 9 9
9 9 9 9 9 9 9 9 9 9 9 10 9 9 9 9 9 9 9 9 9 9 9 9 9 9 10 10 10 10 10 11 11 10 9 9 9 8 8 7 8 8 8 8 9 10 10 10 11 10 9 9 9 9 10 10 10 10 11 11 11 11 11 11 11 11 11 12 13 14 16 15 13 12 12 12 11 11 10 9 9 9 9 9 9 9
9 9 9 9 9 9 10 9 9 9 10 10 10 9 9 9 9 10 9 9 9 9 9 9 9 9 10 10 10 10 10 11 11 10 10 9 9 9 8 8 7 8 8 9 10 10 11 11 11 11 10 9 8 9 10 9 9 10 10 10 11 11 11 11 11 11 11 12 14 15 15 14 13 12 12 12 11 11 10 10 9 8 7 8 8 9
9 9 9 9 10 10 10 9 10 10 10 11 11 10 10 10 11 11 9 9 8 8 8 9 9 10 10 10 10 10 11 10 10 10 9 9 9 9 9 9 8 8 8 8 8 9 9 10 11 11 10 9 9 9 9 9 9 9 10 10 10 10 11 11 12 12 12 13 14 15 14 13 12 12 12 12 12 12 12 11 10 9 8 8 8 9
9 9 9 9 9 10 10 10 10 10 10 11 11 11 10 10 10 9 8 8 8 8 8 9 9 10 10 11 11 10 10 10 10 9 9 8 8 9 9 9 9 9 9 8 8 8 7 7 7 7 9 10 9 8 8 9 9 10 9 9 9 10 10 11 11 12 12 13 14 14 14 13 12 11 11 11 12 13 13 12 11 10 9 8 9 9
9 9 9 9 9 9 10 10 10 10 10 11 11 11 11 10 10 9 8 8 8 8 8 9 9 9 10 11 11 11 10 10 10 10 9 8 8 8 9 9 9 9 9 8 8 8 7 7 6 5 5 6 7 7 6 8 9 10 9 9 9 9 9 10 11 12 13 13 13 13 13 12 12 11 11 11 11 12 12 12 12 12 11 10 10 11
Wind_Direction
295 297 298 299 298 297 295 298 298 298 298 297 297 296 296 296 295 294 295 294 294 293 292 290 291 293 294 296 296 296 296 295 295 294 293 293 293 292 292 292 291 291 291 290 290 290 291 291 291 291 291 291 291 291 290 290 289 289 289 288 287 287 286 286 285 284 282 281 280 280 280 280 280 280 279 279 278 277 276 275 273 272 271 271 271 271
294 295 295 298 298 297 296 298 298 297 297 298 298 297 297 297 296 296 295 293 292 291 291 292 294 296 297 297 296 296 295 294 294 293 293 292 292 292 292 292 292 292 292 292 292 292 292 292 292 292 292 292 291 290 290 289 288 288 287 287 286 285 284 284 283 282 281 280 280 279 279 279 278 278 277 277 276 275 274 273 271 270 269 268 268 268
297 296 295 297 297 297 297 299 298 297 296 296 296 297 297 297 297 296 295 292 291 291 293 296 298 298 298 296 295 295 294 294 293 293 293 292 292 293 293 293 293 293 293 293 293 292 292 292 291 291 291 290 290 289 289 288 287 287 286 286 285 284 284 283 282 281 280 280 280 279 279 278 277 276 276 275 274 273 272 271 270 269 267 267 266 266
295 296 298 298 296 295 295 298 299 297 295 294 294 295 297 296 295 293 292 292 293 295 297 298 298 298 297 296 295 294 294 294 294 293 293 293 294 294 294 294 294 294 293 293 292 291 290 290 290 289 289 289 289 288 288 287 287 286 286 285 285 284 283 283 282 281 280 280 279 279 278 277 276 275 274 273 273 272 271 270 269 268 267 266 266 266
293 295 298 298 296 294 294 295 295 295 293 293 294 296 297 294 292 291 291 294 296 298 299 298 298 297 296 295 294 294 294 294 295 295 295 295 295 295 294 294 293 292 291 290 289 289 288 288 288 288 288 288 288 288 287 287 287 286 286 286 285 284 284 283 283 282 281 281 280 279 279 278 277 276 274 274 273 273 272 271 270 269 268 267 266 267
292 293 296 295 295 294 295 294 293 293 293 293 294 295 295 293 292 293 295 298 300 300 299 298 297 295 295 294 294 295 295 296 296 296 295 295 294 293 292 292 291 290 289 288 287 287 286 286 287 287 287 287 287 287 287 286 286 286 286 286 285 285 285 284 284 284 283 283 282 281 281 280 279 278 277 276 275 275 274 274 273 272 271 270 269 268
291 291 292 292 291 291 291 291 292 294 295 297 296 294 291 291 293 297 300 301 301 300 298 296 295 294 294 295 296 297 297 297 296 295 294 293 292 291 290 289 289 288 287 287 286 286 286 286 286 286 286 286 286 286 286 286 286 286 286 286 286 286 286 286 286 285 285 284 284 283 282 281 280 279 278 277 276 276 276 276 275 275 274 272 271 269
292 292 289 288 287 287 286 287 291 295 299 299 298 297 296 296 297 299 300 300 300 299 298 297 296 296 296 298 298 298 297 296 294 293 292 291 290 289 288 288 288 287 287 286 286 285 285 285 285 285 285 286 286 286 286 286 286 287 287 287 287 287 287 286 286 285 285 284 283 282 281 280 279 279 278 277 276 275 275 275 275 275 274 273 271 270
289 290 287 284 285 287 290 291 295 299 299 297 299 301 303 303 303 302 302 300 300 300 300 300 299 299 298 298 297 296 294 292 291 290 290 289 289 288 288 288 288 287 287 286 286 285 285 285 285 285 286 286 287 287 287 287 287 287 287 287 287 287 286 286 285 284 284 283 282 281 280 279 278 277 276 275 275 274 273 273 273 273 272 271 270 268
283 283 284 283 284 287 293 297 300 300 296 295 297 299 302 304 306 306 305 302 302 302 301 300 300 299 299 297 295 293 292 290 289 289 289 288 289 289 288 288 288 287 286 286 286 286 285 285 286 287 287 287 287 287 287 287 287 286 286 286 286 285 285 284 284 283 282 281 281 280 279 278 277 276 275 274 273 273 272 272 271 271 270 269 268 267
280 280 283 286 288 289 288 293 297 300 300 298 297 297 298 303 306 308 307 306 305 304 301 298 298 298 299 297 296 294 292 291 290 290 289 289 289 289 288 288 287 287 286 286 286 286 286 286 286 286 286 286 286 286 286 286 285 285 285 284 284 284 283 283 282 282 281 280 280 279 278 277 276 275 275 274 273 272 271 271 270 269 268 267 267 266
280 283 285 287 289 291 290 293 297 301 303 303 302 302 302 305 307 307 306 305 305 304 302 299 296 294 295 296 296 296 294 293 292 292 291 290 290 290 290 289 288 287 287 286 286 285 285 285 285 285 285 285 285 284 284 284 284 284 283 283 283 283 282 282 281 281 280 279 279 278 277 276 275 275 274 273 272 271 270 269 269 268 267 266 266 265
279 283 285 289 293 298 301 303 304 306 306 306 305 305 306 308 308 305 301 300 300 301 301 298 296 294 292 293 294 295 295 293 292 292 292 292 293 293 293 291 289 288 287 286 285 284 284 284 284 284 284 284 283 283 283 283 283 283 282 282 282 281 281 280 280 279 279 278 277 277 276 275 274 274 273 272 271 270 269 268 267 266 265 265 264 263
287 293 296 299 302 304 306 307 307 306 306 305 305 305 306 307 306 303 298 295 295 296 297 296 295 294 294 293 293 293 293 293 292 292 291 292 293 294 294 291 289 288 287 286 285 284 284 285 284 284 283 282 282 282 282 282 282 282 281 281 280 280 279 279 278 278 277 277 276 276 275 275 274 273 272 271 270 269 268 267 266 265 264 263 262 262
307 309 306 304 304 304 306 305 304 303 303 304 304 304 304 303 301 299 296 295 296 297 297 295 294 293 292 294 295 295 293 293 293 293 293 292 292 293 293 291 289 287 287 286 285 284 285 284 283 281 281 280 280 280 281 281 281 280 280 280 280 279 279 279 278 278 278 277 277 276 276 275 274 273 272 271 270 269 268 267 266 265 264 263 262 261
311 308 305 304 303 303 303 303 303 302 303 303 303 302 301 299 298 297 295 295 296 298 299 299 299 298 294 293 294 295 295 293 293 293 294 293 293 293 294 291 289 287 286 284 284 284 285 283 281 280 280 280 280 280 281 281 280 281 281 281 281 281 281 281 280 280 279 279 278 277 276 275 275 274 272 272 271 270 269 268 267 266 265 264 263 262
306 303 301 300 300 300 302 302 301 301 301 301 300 298 296 296 295 295 294 295 296 298 299 302 304 304 302 300 297 296 297 296 295 295 295 293 293 293 293 290 288 286 286 284 283 284 285 283 282 281 281 280 280 281 281 281 282 282 282 282 282 282 282 281 281 280 279 279 278 277 276 275 274 273 272 271 270 269 268 267 266 265 264 264 263 262
300 298 297 297 298 299 302 301 300 299 298 297 296 294 293 292 292 292 292 293 296 298 300 301 300 299 299 300 301 303 305 302 300 298 295 293 292 292 293 289 286 285 285 284 284 283 283 282 281 280 280 281 281 282 282 283 283 283 283 283 282 282 281 281 280 279 278 278 277 276 275 274 273 272 271 270 269 268 267 266 265 264 263 262 261 261
295 296 296 297 298 299 299 299 298 297 296 295 295 295 294 292 291 291 291 293 296 297 298 296 293 291 291 292 295 301 308 306 302 298 295 292 292 292 293 289 285 283 283 283 283 283 283 282 281 280 280 281 282 282 283 283 283 282 282 282 281 281 281 280 279 279 278 277 276 276 275 274 273 272 271 270 269 267 266 265 264 263 262 261 260 259
295 295 295 296 296 295 294 292 292 292 293 293 293 293 292 294 295 295 295 297 296 294 292 289 288 288 289 290 294 299 307 306 301 295 291 290 290 291 293 290 287 284 283 283 285 286 285 283 282 281 281 281 282 282 282 282 282 282 281 281 281 281 281 281 280 280 279 278 277 277 276 275 274 273 272 271 269 268 267 266 265 264 263 261 260 259
293 292 290 291 291 291 289 289 289 290 291 292 292 291 292 296 298 299 299 298 295 292 288 286 286 287 290 291 294 298 305 303 297 292 289 288 288 289 292 290 288 286 285 285 286 286 285 284 282 282 281 282 282 282 282 283 283 283 282 282 282 282 281 281 281 280 280 279 278 277 276 275 274 274 272 271 270 269 268 267 266 265 264 263 262 260
287 286 287 286 285 284 284 286 288 290 291 292 292 294 297 301 301 300 299 296 293 290 288 286 287 288 290 289 291 293 298 294 289 287 289 288 288 288 292 292 289 287 286 287 288 288 287 285 284 283 283 284 284 285 285 284 284 284 284 283 283 282 282 282 282 281 281 280 279 278 277 276 275 274 273 272 271 269 268 268 267 266 265 264 263 262
281 282 284 284 283 282 282 285 287 290 293 293 294 295 298 299 298 296 296 294 291 289 288 287 287 287 286 285 286 288 289 287 285 284 286 286 288 290 295 294 291 287 286 289 292 293 292 289 287 286 286 285 285 285 285 285 284 284 284 284 284 284 284 283 283 282 281 280 279 278 277 275 274 273 272 271 270 269 268 267 266 265 264 263 262 261
281 282 284 284 282 281 281 285 290 294 297 297 296 295 294 293 292 290 289 288 287 287 287 287 287 286 283 283 284 286 288 288 288 286 283 284 287 291 296 296 292 289 288 292 295 297 294 291 288 286 285 284 284 285 285 285 285 285 285 285 285 285 285 284 283 282 281 280 279 278 277 275 274 273 272 271 270 268 267 266 265 263 263 262 261 260
284 284 284 285 286 288 290 294 297 299 300 300 298 297 296 294 292 289 286 284 284 284 286 287 288 288 288 290 290 290 291 292 291 288 283 284 286 289 293 295 294 292 291 294 296 295 292 289 287 286 285 285 285 285 285 286 286 286 286 286 286 285 285 284 284 283 282 281 280 279 278 277 276 275 274 272 271 269 267 266 265 263 263 262 261 260
286 287 288 291 294 296 298 299 299 299 299 299 298 298 298 296 293 290 286 285 285 287 289 289 290 290 292 294 293 292 294 295 292 287 283 284 287 289 293 296 295 293 292 294 294 293 291 290 289 288 287 286 286 286 286 286 286 286 286 286 286 286 286 286 286 285 284 283 283 282 280 280 278 277 276 274 272 271 269 268 267 265 264 264 262 261
288 290 292 295 297 298 299 299 298 298 299 298 298 297 296 296 293 290 287 289 291 293 293 292 292 293 294 293 292 293 297 298 294 289 285 285 286 289 294 297 296 295 294 294 294 294 292 291 290 289 288 287 286 286 286 287 287 287 287 288 288 288 288 287 287 286 285 284 283 282 281 280 279 277 276 275 273 272 271 269 268 267 266 266 264 262
291 294 297 298 298 298 298 298 298 298 298 298 297 296 295 293 290 288 288 292 295 295 292 292 293 294 295 295 295 296 298 296 294 291 290 287 285 287 293 298 299 298 297 295 294 292 290 288 287 288 287 287 288 288 288 289 289 289 289 289 289 288 288 287 286 285 284 283 282 281 280 279 278 277 275 274 273 272 270 269 268 267 266 264 263 260
296 298 298 298 298 298 298 298 298 297 296 295 294 294 293 289 285 284 287 293 294 293 290 290 291 292 293 294 295 295 294 292 293 297 302 294 287 286 294 299 301 301 301 299 296 292 286 283 285 287 290 292 293 293 292 292 291 290 288 287 287 286 285 284 284 283 283 282 281 281 280 279 277 276 275 274 273 271 270 269 268 267 265 261 258 256
302 301 300 299 298 298 298 297 296 294 293 293 293 293 292 286 282 281 285 288 289 288 288 290 291 292 293 296 296 294 291 292 299 308 312 299 290 290 297 299 300 302 305 304 302 299 292 286 286 290 294 296 296 295 293 292 290 288 286 286 284 284 283 282 282 282 282 281 281 280 279 278 277 276 275 274 273 272 271 270 268 267 264 259 256 254
305 304 301 300 300 299 297 295 293 292 292 293 294 293 291 286 282 280 281 283 283 283 285 288 289 291 293 295 295 294 292 297 305 312 312 298 291 293 299 299 299 300 303 303 304 304 303 300 298 296 297 297 296 293 291 290 288 286 285 285 283 282 282 282 283 283 282 282 281 280 279 278 277 276 276 275 273 272 271 270 269 267 263 260 257 255
305 303 301 301 301 300 297 295 294 293 293 294 293 292 289 286 284 282 281 280 279 279 281 284 286 288 287 285 285 286 288 295 302 307 306 297 291 292 297 296 297 297 297 292 291 294 300 303 305 305 303 299 296 293 291 290 288 286 285 285 284 283 283 284 284 284 284 283 282 281 280 279 278 277 276 275 274 273 271 270 268 266 262 259 257 256
303 302 302 301 300 299 297 296 296 296 296 295 294 292 290 288 286 284 282 280 278 277 278 281 284 285 285 282 280 280 283 289 296 301 304 299 294 292 296 296 296 296 295 289 284 282 283 291 298 302 303 299 297 295 294 292 290 287 286 286 286 285 286 287 287 287 286 284 284 282 281 280 279 277 276 275 274 273 272 270 268 266 262 259 257 255
303 303 302 301 300 299 299 299 299 299 298 297 296 294 293 291 289 287 284 282 279 277 276 277 280 282 284 284 283 282 283 286 293 299 304 299 294 292 295 295 296 296 297 292 288 284 279 284 291 297 300 299 297 296 295 294 293 291 288 287 287 288 289 290 289 287 286 285 284 283 281 279 278 276 275 274 273 272 271 269 267 265 261 259 256 254
303 302 302 302 302 303 303 303 303 301 300 299 297 296 295 294 292 290 287 285 283 279 276 274 274 275 278 282 283 284 285 289 295 300 301 296 292 291 293 293 294 296 296 294 292 290 287 288 291 295 298 299 298 296 294 295 296 295 293 290 288 287 288 289 288 287 286 285 283 280 278 276 274 273 272 271 270 270 269 268 266 264 261 259 256 254
303 303 303 304 305 306 306 305 305 303 302 301 300 298 297 296 294 293 290 288 285 283 280 276 273 270 270 272 276 279 283 288 293 296 295 292 289 288 289 289 291 293 292 292 292 291 291 292 293 294 295 297 298 298 298 300 301 300 297 293 290 288 287 286 285 284 284 283 281 279 276 275 272 270 269 269 269 269 268 267 266 264 262 259 257 254
302 302 304 305 306 306 305 305 305 304 304 303 302 301 300 298 296 295 292 289 287 285 283 280 277 273 268 267 268 271 276 282 286 288 288 286 285 283 282 284 286 287 287 288 290 291 292 294 294 295 295 294 296 299 304 307 306 304 299 297 294 291 288 285 283 280 279 279 278 278 277 275 273 271 270 270 269 269 269 267 266 264 263 261 258 256
303 303 305 306 306 306 305 305 304 304 304 303 303 301 300 298 296 295 293 290 288 285 284 282 280 277 274 271 270 270 272 276 279 280 281 281 280 278 277 280 281 281 279 280 283 287 290 292 294 296 296 295 295 296 300 304 305 304 301 299 296 292 289 287 284 281 278 278 278 278 278 276 275 273 272 271 270 269 267 265 264 262 262 260 258 256
304 304 305 306 306 306 305 304 303 302 302 301 300 299 297 296 295 294 293 291 289 286 285 284 283 281 279 277 274 273 273 274 275 276 277 276 275 274 274 277 278 278 277 276 277 279 282 284 287 290 293 295 297 298 299 300 300 301 302 302 299 294 290 290 288 286 282 281 281 281 279 277 274 272 271 270 268 266 264 263 261 259 258 257 257 256
304 304 304 304 304 303 302 300 300 300 300 299 297 296 295 295 295 295 294 292 291 289 288 287 285 284 283 281 279 277 276 274 273 273 273 271 269 267 269 272 274 276 278 276 274 273 275 277 280 282 285 289 293 296 299 298 298 300 304 305 303 301 300 299 295 290 285 281 279 279 279 277 275 272 270 268 266 264 262 262 261 258 255 252 252 254
305 304 304 304 303 301 298 298 298 298 298 297 297 296 296 297 298 298 299 297 296 294 294 293 292 289 288 284 282 279 277 273 272 271 270 268 266 265 266 268 271 274 277 276 275 273 273 276 279 281 283 285 288 290 291 292 294 297 301 299 297 297 299 297 293 289 286 283 281 280 281 281 279 276 273 270 266 263 261 261 261 260 256 249 246 246
303 303 303 303 302 300 299 299 298 298 297 297 296 296 296 297 298 299 301 301 302 302 303 303 301 299 298 295 290 285 279 274 272 271 271 269 267 266 266 266 268 271 274 276 276 275 275 277 279 281 282 284 286 288 289 290 293 295 296 294 295 297 297 295 293 292 292 291 290 287 286 284 282 279 276 273 269 266 262 261 260 260 258 252 246 242
302 300 300 300 299 299 299 300 300 299 299 297 296 295 295 295 296 297 298 299 301 302 304 304 302 301 300 299 298 295 290 283 279 277 275 271 269 267 266 265 265 267 270 275 278 280 281 280 279 278 278 280 281 283 285 289 292 293 293 294 298 303 304 305 305 305 301 296 293 290 288 286 283 281 278 275 272 269 266 263 262 260 258 254 249 244
299 298 298 299 299 300 301 301 301 300 300 299 298 296 296 296 297 297 297 297 298 300 301 301 300 298 296 296 298 301 302 297 291 285 279 275 271 269 269 268 268 269 270 274 278 283 286 285 282 280 279 279 279 279 281 284 288 290 292 295 297 297 295 299 302 304 302 298 295 293 292 290 289 287 284 280 276 272 268 265 263 261 258 254 251 248
299 299 300 301 302 303 303 302 301 301 301 299 298 297 298 299 299 298 297 297 298 299 300 301 300 299 297 298 301 304 305 304 302 296 289 283 280 278 277 275 274 273 271 270 272 276 282 285 286 286 286 282 278 276 277 280 284 288 291 294 295 293 288 290 294 298 299 300 300 300 300 299 297 295 292 289 286 282 276 272 269 267 264 259 254 252
302 303 304 304 304 303 301 302 302 302 301 299 299 299 301 301 300 298 296 297 297 298 299 299 298 296 296 299 302 305 306 306 307 306 304 299 295 291 286 282 278 276 273 271 270 270 271 275 280 284 288 285 281 277 274 277 281 286 291 296 297 297 294 294 295 296 298 301 303 304 306 305 303 301 299 298 296 293 288 281 276 273 271 268 263 258
304 305 305 305 303 302 302 303 303 303 302 302 302 303 304 303 302 300 299 299 298 298 299 299 296 294 293 296 299 302 304 306 308 308 309 308 307 304 299 293 287 282 279 276 272 269 266 265 267 271 276 280 282 281 279 279 283 287 293 297 299 300 299 299 300 300 301 302 304 306 309 309 308 306 304 303 301 299 295 290 284 278 274 272 269 264
305 305 304 304 304 303 304 305 305 304 304 304 304 304 305 305 305 304 301 302 301 300 300 300 298 296 295 296 297 298 300 302 304 305 307 309 309 310 309 305 300 293 287 282 277 272 267 261 258 256 257 262 270 277 282 285 288 291 294 297 299 300 300 302 303 305 305 304 305 306 309 310 310 309 308 307 306 305 304 301 297 290 283 279 275 272
303 303 303 302 303 303 303 305 305 305 304 305 305 306 306 306 306 305 302 302 301 300 299 299 299 298 298 298 298 298 299 300 300 302 304 307 309 311 312 311 310 307 302 296 290 282 275 265 253 245 238 240 249 263 276 283 288 291 294 296 298 300 302 304 307 309 309 308 308 308 308 309 309 308 308 308 308 309 310 309 307 303 298 292 286 281
301 301 301 301 301 301 302 303 304 304 303 304 305 306 306 307 306 305 302 300 299 297 295 296 296 297 298 299 300 301 301 302 302 303 304 307 310 312 313 314 314 314 313 311 310 308 303 292 272 249 231 227 232 246 267 281 290 295 297 298 300 302 304 307 309 311 313 312 311 311 310 310 311 312 312 311 311 313 314 315 314 313 309 304 298 292
302 301 301 300 300 300 301 302 302 302 302 303 303 304 304 305 306 305 304 303 301 298 296 295 294 294 296 299 300 301 302 302 303 304 305 308 310 312 313 314 315 317 317 319 321 323 323 323 319 305 271 242 232 235 259 282 294 301 303 304 305 307 308 308 310 312 314 314 313 312 313 314 317 319 320 318 317 318 320 320 319 318 317 315 311 307